[[{"header":{"parameterUnit":"m.s-1","parameterCategory":1,"la1":30.2991,"la2":30.254,"lo1":-89.0895,"lo2":-89.0444,"dy":0.0017,"dx":0.0017,"nx":28,"ny":28,"refTime":"2025-05-19T21:00:00:Z","depth":0,"parameterNumber":2,"parameterNumberName":"U-component_of_WINDS"},"data":[0,0,0,0,0,0,0,0,0,0,0,0,0,0,0,0,0,0,0,0,0,0,0,0,0,0,0,0,0,0,0,0,0,0,0,0,0,0,0,0,0,0,0,0,0,0,0,0,0,0,0,0,0,0,0,0,0,0,-3.0832,-3.0833,0,-3.0887,-3.0888,-3.0889,-3.0869,-3.0868,-3.0867,-3.0865,-3.0923,-3.0925,-3.0928,0,0,0,0,0,0,0,0,0,0,0,0,0,-3.071,-3.0712,-3.0832,-3.0833,-3.0833,-3.0887,-3.0888,-3.0889,-3.0869,-3.0868,-3.0866,-3.0865,-3.0922,-3.0925,-3.0928,0,0,0,0,0,0,0,0,0,0,0,0,0,-3.0764,-3.0713,-3.0832,-3.083,-3.083,-3.0887,-3.0888,-3.0889,-3.087,-3.0868,-3.0866,-3.0864,-3.0921,-3.0925,-3.0929,-3.0991,0,0,-3.0941,-3.0943,0,0,0,0,0,0,0,0,-3.0761,-3.0768,-3.083,-3.083,-3.0831,-3.0869,-3.0866,-3.0923,-3.087,-3.0855,-3.0865,-3.0863,-3.0906,-3.0912,-3.0926,-3.0993,-3.0996,-3.0941,-3.0944,-3.0945,-3.0947,0,0,0,0,0,0,0,-3.0757,-3.0766,-3.0854,-3.0831,-3.0831,-3.0827,-3.0832,-3.0877,-3.089,-3.0856,-3.0855,-3.0861,-3.0906,-3.0922,-3.0927,-3.0997,-3.0941,-3.0945,-3.0947,-3.0949,-3.1118,-3.112,0,0,0,0,0,0,-3.0753,-3.0763,-3.0852,-3.0856,-3.079,-3.083,-3.0837,-3.0859,-3.089,-3.0893,-3.0863,-3.086,-3.0916,-3.0923,-3.0929,-3.1004,-3.0945,-3.0949,-3.0951,-3.1116,-3.1118,-3.112,0,0,0,0,0,0,-3.075,-3.0761,-3.085,-3.0809,-3.082,-3.0835,-3.086,-3.0861,-3.0877,-3.0895,-3.0898,-3.0877,-3.0915,-3.0924,-3.0975,-3.1005,-3.0951,-3.0955,-3.1113,-3.1116,-3.1119,-3.1153,0,0,0,0,0,0,-3.0747,-3.076,-3.0784,-3.081,-3.0822,-3.0895,-3.0861,-3.0863,-3.0884,-3.0881,-3.0908,-3.0911,-3.0914,-3.097,-3.098,-3.101,-3.0958,-3.1111,-3.1115,-3.1118,-3.1149,-3.1157,-3.1164,0,0,0,0,0,-3.0743,-3.0791,-3.0785,-3.0796,-3.0852,-3.0897,-3.0904,-3.0906,-3.0886,-3.091,-3.0922,-3.091,-3.1001,-3.0975,-3.0986,-3.1018,-3.1109,-3.1113,-3.1118,-3.1146,-3.1156,-3.1163,0,0,0,0,0,0,-3.0769,-3.0795,-3.0788,-3.0846,-3.087,-3.0893,-3.0923,-3.0916,-3.0946,-3.0942,-3.0943,-3.095,-3.1003,-3.1016,-3.0987,-3.108,-3.1052,-3.1059,-3.1069,-3.1078,-3.1085,-3.1081,-3.0961,0,0,0,0,0,-3.0781,-3.0815,-3.0836,-3.0886,-3.0898,-3.0909,-3.0929,-3.0928,-3.0952,-3.0962,-3.0978,-3.1002,-3.1036,-3.1058,-3.109,-3.1152,-3.1157,-3.1179,-3.1186,-3.1192,-3.1198,-3.1231,-3.1241,-3.1136,-3.1136,-3.1136,0,0,-3.0807,-3.0826,-3.0847,-3.0892,-3.0909,-3.0945,-3.0917,-3.0956,-3.0982,-3.0968,-3.1018,-3.1031,-3.1058,-3.1115,-3.114,-3.1127,-3.1228,-3.1198,-3.1202,-3.1205,-3.1237,-3.1247,-3.1256,-3.1139,-3.1138,-3.1138,0,0,-3.0873,-3.0891,-3.0934,-3.0952,-3.098,-3.0987,-3.0997,-3.1023,-3.103,-3.108,-3.107,-3.1102,-3.116,-3.118,-3.1197,-3.1271,-3.1262,-3.1282,-3.1319,-3.1351,-3.1359,-3.1367,-3.1393,-3.1402,-3.1288,-3.1288,-3.1288,0,-3.0902,-3.0955,-3.0957,-3.0996,-3.1016,-3.1005,-3.1049,-3.1067,-3.1104,-3.1118,-3.1102,-3.1175,-3.1192,-3.1253,-3.1271,-3.1286,-3.1298,-3.1278,-3.1358,-3.1365,-3.1372,-3.1397,-3.1407,-3.129,-3.129,-3.129,-3.1289,0,-3.0989,-3.1026,-3.1058,-3.1093,-3.1117,-3.1158,-3.1166,-3.119,-3.1188,-3.1197,-3.1248,-3.1269,-3.1305,-3.132,-3.1318,-3.1381,-3.1372,-3.1357,-3.1329,-3.1384,-3.1408,-3.1417,-3.1293,-3.1292,-3.1292,-3.1291,0,0,-3.1073,-3.1109,-3.112,-3.1136,-3.1166,-3.1195,-3.1236,-3.1271,-3.1291,-3.1317,-3.1352,-3.1401,-3.1388,-3.1408,-3.1409,-3.1438,-3.1494,-3.1419,-3.142,-3.1432,-3.1565,-3.1575,-3.1586,-3.1489,-3.149,-3.1492,-3.1562,0,-3.1141,-3.1212,-3.1215,-3.1281,-3.1315,-3.1305,-3.1341,-3.1363,-3.1373,-3.1403,-3.1414,-3.1449,-3.1429,-3.1441,-3.1469,-3.1481,-3.1521,-3.1477,-3.1521,-3.1522,-3.1513,-3.1598,-3.1609,-3.1674,-3.1571,-3.1573,-3.1574,0,-3.1229,-3.1257,-3.1326,-3.1351,-3.1366,-3.1398,-3.143,-3.146,-3.1485,-3.149,-3.1512,-3.1509,-3.1552,-3.1522,-3.1581,-3.1551,-3.1569,-3.1578,-3.1581,-3.1584,-3.1551,-3.1604,-3.1695,-3.1705,-3.1588,-3.1587,-3.1586,0,-3.1282,-3.1338,-3.1386,-3.14,-3.1431,-3.1453,-3.1467,-3.1491,-3.1512,-3.154,-3.1554,-3.1587,-3.1605,-3.1631,-3.1637,-3.1615,-3.1696,-3.1667,-3.1701,-3.1701,-3.1718,-3.1716,-3.1813,-3.1731,-3.173,-3.173,-3.173,0,-3.1358,-3.14,-3.141,-3.144,-3.1488,-3.1491,-3.1538,-3.155,-3.1571,-3.1603,-3.1597,-3.1627,-3.1633,-3.1665,-3.167,-3.1718,-3.1726,-3.1731,-3.1732,-3.1731,-3.1731,-3.1743,-3.1738,-3.1733,-3.1732,-3.1732,-3.1731,0,-3.1425,-3.1434,-3.1486,-3.151,-3.1517,-3.1551,-3.1572,-3.1601,-3.1609,-3.165,-3.166,-3.1674,-3.1711,-3.172,-3.1764,-3.1767,-3.1824,-3.182,-3.1815,-3.1814,-3.1848,-3.1844,-3.1955,-3.197,-3.1878,-3.1879,-3.188,0,-3.1472,-3.1504,-3.1532,-3.1553,-3.1568,-3.1601,-3.1623,-3.1627,-3.165,-3.1681,-3.1706,-3.1742,-3.1771,-3.1831,-3.1845,-3.1879,-3.1876,-3.1913,-3.1881,-3.188,-3.1876,-3.1874,-3.1877,-3.1919,-3.192,-3.192,-3.1921,0,-3.1555,-3.1557,-3.1588,-3.162,-3.1646,-3.1672,-3.1696,-3.1714,-3.1722,-3.1747,-3.1785,-3.1808,-3.1853,-3.1889,-3.1923,-3.1937,-3.1931,-3.1931,-3.1941,-3.194,-3.1935,-3.1938,-3.1831,-3.1928,-3.1928,-3.1927,-3.1927,-3.1926,-3.1613,-3.1641,-3.1665,-3.1699,-3.1718,-3.1742,-3.177,-3.1782,-3.1813,-3.185,-3.1851,-3.1892,-3.1916,-3.1961,-3.1978,-3.201,-3.1999,-3.2013,-3.2016,-3.202,-3.2022,-3.1931,-3.2017,-3.2016,-3.2016,-3.2016,-3.2016,0,-3.1695,-3.171,-3.1741,-3.1776,-3.1803,-3.1794,-3.1821,-3.1844,-3.188,-3.1904,-3.1933,-3.1976,-3.2011,-3.2028,-3.2063,-3.2086,-3.2083,-3.2094,-3.2093,-3.2096,-3.2031,-3.2019,-3.2096,-3.2096,-3.2096,-3.2096,-3.2095,-3.2095,-3.1741,-3.1788,-3.1794,-3.185,-3.1865,-3.1904,-3.192,-3.1942,-3.196,-3.2009,-3.2038,-3.2049,-3.207,-3.2106,-3.2138,-3.2142,-3.2155,-3.2168,-3.217,-3.2109,-3.2101,-3.2093,-3.2081,-3.217,-3.2171,-3.2233,-3.2233,-3.2234]},{"header":{"parameterUnit":"m.s-1","parameterCategory":1,"la1":30.2991,"la2":30.254,"lo1":-89.0895,"lo2":-89.0444,"dy":0.0017,"dx":0.0017,"nx":28,"ny":28,"refTime":"2025-05-19T21:00:00:Z","depth":0,"parameterNumber":3,"parameterNumberName":"V-component_of_WINDS"},"data":[0,0,0,0,0,0,0,0,0,0,0,0,0,0,0,0,0,0,0,0,0,0,0,0,0,0,0,0,0,0,0,0,0,0,0,0,0,0,0,0,0,0,0,0,0,0,0,0,0,0,0,0,0,0,0,0,0,0,5.837,5.8371,0,5.8447,5.8448,5.8449,5.84,5.8398,5.8395,5.8393,5.8468,5.8472,5.8476,0,0,0,0,0,0,0,0,0,0,0,0,0,5.8176,5.818,5.837,5.8371,5.8372,5.8447,5.8448,5.8449,5.84,5.8398,5.8395,5.8392,5.8467,5.8472,5.8477,0,0,0,0,0,0,0,0,0,0,0,0,0,5.8257,5.8181,5.837,5.8357,5.8356,5.8447,5.8448,5.845,5.8401,5.8397,5.8394,5.8391,5.8465,5.8471,5.8477,5.8584,0,0,5.8496,5.8499,0,0,0,0,0,0,0,0,5.8253,5.8265,5.8358,5.8358,5.8357,5.8411,5.8407,5.8494,5.8402,5.8384,5.8393,5.8389,5.8452,5.8459,5.848,5.8588,5.8591,5.8497,5.8501,5.8503,5.8505,0,0,0,0,0,0,0,5.8247,5.8261,5.84,5.8359,5.8359,5.8346,5.8353,5.8424,5.8436,5.8385,5.8382,5.8392,5.8451,5.8475,5.8482,5.8592,5.8497,5.8502,5.8506,5.8508,5.879,5.8793,0,0,0,0,0,0,5.8243,5.8257,5.8398,5.8403,5.8296,5.8352,5.8361,5.8397,5.8435,5.8438,5.8395,5.8389,5.8466,5.8475,5.8484,5.8611,5.8503,5.8509,5.8513,5.8786,5.8791,5.8795,0,0,0,0,0,0,5.8239,5.8256,5.8395,5.8329,5.8345,5.8359,5.84,5.84,5.8424,5.8442,5.8444,5.8417,5.8463,5.8476,5.856,5.8613,5.8512,5.8517,5.8782,5.8787,5.8793,5.8867,0,0,0,0,0,0,5.8234,5.8255,5.8297,5.833,5.8349,5.847,5.8403,5.8404,5.8435,5.8429,5.8464,5.8466,5.8462,5.8551,5.8566,5.862,5.8522,5.8777,5.8784,5.8791,5.886,5.8874,5.8887,0,0,0,0,0,5.8227,5.8314,5.8299,5.8316,5.8402,5.8474,5.8484,5.8479,5.844,5.8481,5.8493,5.8465,5.8605,5.856,5.8576,5.8633,5.8773,5.8782,5.879,5.8853,5.8871,5.8886,0,0,0,0,0,0,5.8285,5.8318,5.8302,5.8402,5.8436,5.8465,5.8517,5.8498,5.8542,5.8534,5.8524,5.8532,5.862,5.8635,5.8584,5.8738,5.8683,5.8695,5.8725,5.8742,5.8756,5.875,5.8527,0,0,0,0,0,5.8309,5.8366,5.8392,5.8477,5.8495,5.8504,5.8535,5.8528,5.8561,5.8575,5.8592,5.8625,5.8676,5.871,5.8758,5.8862,5.8868,5.8909,5.8922,5.8933,5.8944,5.8999,5.9017,5.8822,5.8822,5.8822,0,0,5.836,5.8385,5.8422,5.849,5.8515,5.8573,5.8516,5.8579,5.8622,5.8584,5.8665,5.8679,5.8715,5.8809,5.8851,5.8824,5.8999,5.8944,5.8953,5.8957,5.901,5.9028,5.9044,5.8828,5.8827,5.8826,0,0,5.8482,5.8508,5.8582,5.8609,5.8648,5.8653,5.8671,5.8704,5.8712,5.8794,5.8766,5.8816,5.8905,5.8931,5.8956,5.909,5.9065,5.9105,5.9176,5.923,5.9245,5.9259,5.9306,5.9323,5.9116,5.9116,5.9116,0,5.854,5.8628,5.8622,5.8688,5.8719,5.8689,5.8763,5.8789,5.8841,5.8862,5.8832,5.8943,5.8964,5.9064,5.9097,5.9118,5.9138,5.9101,5.9244,5.9257,5.927,5.9314,5.9332,5.9121,5.912,5.912,5.9119,0,5.8697,5.8758,5.8813,5.8866,5.8903,5.8973,5.8976,5.9014,5.9004,5.9012,5.9095,5.912,5.9173,5.9196,5.9186,5.9295,5.9277,5.9245,5.9189,5.9293,5.9335,5.9352,5.9127,5.9126,5.9124,5.9123,0,0,5.8856,5.8906,5.8927,5.895,5.8992,5.9038,5.9106,5.916,5.9192,5.9229,5.9285,5.9362,5.9333,5.9362,5.9354,5.9402,5.9505,5.9365,5.9365,5.9389,5.9625,5.9648,5.9668,5.949,5.9493,5.9496,5.9622,0,5.8981,5.9102,5.9099,5.921,5.9266,5.9239,5.9298,5.9329,5.9339,5.9386,5.9396,5.945,5.9409,5.9426,5.9472,5.9483,5.9552,5.9474,5.9541,5.9543,5.9532,5.969,5.9714,5.9832,5.9638,5.9641,5.9643,0,5.9142,5.9186,5.9304,5.9337,5.9361,5.9414,5.9463,5.9509,5.9544,5.9547,5.958,5.9565,5.9633,5.9576,5.9669,5.9616,5.9643,5.9653,5.9657,5.9662,5.9599,5.9698,5.987,5.9887,5.9669,5.9667,5.9665,0,5.9246,5.9335,5.9417,5.9438,5.9479,5.9517,5.9536,5.9567,5.9599,5.9641,5.9662,5.9711,5.9737,5.9775,5.9774,5.9732,5.9868,5.9811,5.9871,5.9871,5.99,5.9898,6.0077,5.9919,5.9919,5.9918,5.9918,0,5.9385,5.9458,5.9464,5.9515,5.9595,5.9591,5.967,5.9685,5.9713,5.9764,5.9743,5.9792,5.9788,5.9837,5.9836,5.9913,5.9925,5.9928,5.9927,5.993,5.993,5.9947,5.9938,5.9923,5.9922,5.9921,5.992,0,5.9514,5.9522,5.9609,5.9641,5.9651,5.9709,5.9736,5.9783,5.9791,5.9857,5.9872,5.9884,5.994,5.9943,6.0007,6.0007,6.01,6.009,6.0089,6.0087,6.0147,6.0141,6.0343,6.0369,6.0194,6.0196,6.0198,0,5.9602,5.9658,5.9696,5.973,5.9751,5.9806,5.9839,5.9837,5.9872,5.9916,5.9957,6.0012,6.0056,6.0147,6.016,6.021,6.02,6.0267,6.0207,6.0208,6.02,6.0197,6.0202,6.0279,6.0281,6.0282,6.0284,0,5.9757,5.9758,5.9807,5.9858,5.9899,5.9938,5.9975,6.0003,6.0005,6.0045,6.0104,6.0138,6.0204,6.0259,6.0307,6.0324,6.0304,6.0303,6.0319,6.0322,6.0319,6.0321,6.012,6.0298,6.0296,6.0295,6.0295,6.0294,5.9867,5.9916,5.9951,6.0006,6.0034,6.0069,6.0115,6.0129,6.0178,6.0233,6.0228,6.0293,6.0325,6.0388,6.0409,6.0459,6.0436,6.046,6.0465,6.0471,6.0477,6.0312,6.0468,6.0467,6.0467,6.0466,6.0466,0,6.002,6.0042,6.0093,6.0146,6.0189,6.0169,6.0208,6.0245,6.0303,6.0336,6.038,6.0446,6.0499,6.0517,6.0568,6.0604,6.0596,6.0617,6.0614,6.0618,6.0496,6.0476,6.0623,6.0623,6.0623,6.0623,6.0623,6.0623,6.0105,6.0186,6.0191,6.0284,6.0305,6.0369,6.0393,6.0425,6.0451,6.0527,6.0571,6.0583,6.061,6.0663,6.071,6.0713,6.0733,6.0758,6.0758,6.0643,6.0627,6.0612,6.0593,6.0762,6.0762,6.0876,6.0877,6.0878]}]]